This demonstration page uses our WeatherBlox Daily Observations layout. Learn more.

41.55636, -103.73856

Hourly Observations for July 8, 2016

Temp ( °F °C ) Dew Point ( °F °C ) Humidity (%) Winds ( mph kmh ) Pressure ( in mb ) Visibility ( mi km ) Precip ( " mm )
12:53 am 00:53 Clear 63 17.2 56 13.3 78 78 ESE 8 13 29.93 1013 10 16.0934 0 0
1:53 am 01:53 Clear 60 15.6 56 13.3 86 86 ESE 7 11 29.93 1014 10 16.0934 0 0
2:53 am 02:53 Partly Cloudy 60 15.6 56 13.3 86 86 SE 7 11 29.96 1014 10 16.0934 0 0
3:45 am 03:45 Mostly Cloudy 61 16 57 14 88 88 ESE 6 9 29.94 1014 10 16.0934 0 0
3:53 am 03:53 Mostly Cloudy 61 16.1 57 13.9 87 87 ESE 7 11 29.93 1013 10 16.0934 0 0
4:00 am 04:00 Partly Cloudy 61 16 55 13 83 83 ESE 7 11 29.94 1014 10 16.0934 0 0
4:53 am 04:53 Clear 60 15.6 56 13.3 86 86 undefined N/A 29.92 1013 10 16.0934 0 0
5:53 am 05:53 Sunny 60 15.6 56 13.3 86 86 ESE 9 15 29.93 1013 10 16.0934 0 0
6:53 am 06:53 Sunny 62 16.7 57 13.9 84 84 E 13 20 29.93 1014 10 16.0934 0 0
7:53 am 07:53 Sunny 66 18.9 58 14.4 75 75 ESE 17 28 29.92 1013 10 16.0934 0 0
8:53 am 08:53 Sunny 71 21.7 61 16.1 71 71 ESE 10 17 29.92 1013 10 16.0934 0 0
9:53 am 09:53 Sunny 77 25 62 16.7 60 60 ENE 9 15 29.91 1013 10 16.0934 0 0
10:53 am 10:53 Sunny 82 27.8 63 17.2 53 53 E 14 22 29.9 1013 10 16.0934 0 0
11:53 am 11:53 Sunny 88 31.1 61 16.1 40 40 VRB 5 7 29.88 1012 10 16.0934 0 0
12:53 pm 12:53 Sunny 91 32.8 53 11.7 27 27 NW 10 17 29.85 1011 10 16.0934 0 0
1:53 pm 13:53 Sunny 91 32.8 52 11.1 26 26 NW 6 9 29.84 1011 10 16.0934 0 0
2:53 pm 14:53 Sunny 94 34.4 45 7.2 18 18 NW 9 15 29.83 1010 10 16.0934 0 0
3:53 pm 15:53 Sunny 95 35 38 3.3 14 14 VRB 3 6 29.8 1009 10 16.0934 0 0
4:53 pm 16:53 Sunny 94 34.4 40 4.4 15 15 E 6 9 29.8 1009 10 16.0934 0 0
5:53 pm 17:53 Sunny 91 32.8 43 6.1 19 19 S 7 11 29.81 1010 10 16.0934 0 0
6:53 pm 18:53 Sunny 88 31.1 43 6.1 21 21 SE 7 11 29.8 1009 10 16.0934 0 0
7:53 pm 19:53 Sunny 83 28.3 49 9.4 31 31 SW 8 13 29.82 1010 10 16.0934 0 0
8:53 pm 20:53 Clear 79 26.1 48 8.9 34 34 SSW 8 13 29.86 1011 10 16.0934 0 0
9:53 pm 21:53 Clear 78 25.6 47 8.3 33 33 S 10 17 29.83 1010 10 16.0934 0 0
10:53 pm 22:53 Clear 75 24 45 7 34 34 Calm 29.77 1008 10 16.0934 0 0
11:53 pm 23:53 Clear 71 21.7 47 8.3 42 42 ESE 7 11 29.85 1011 10 16.0934 0 0

Powered by AerisWeather